When you browse on this site, cookies collect data to enhance your experience and personalize the content and advertising you see.
Visit our Privacy Policy to learn more. By continuing to use the site, you agree to this use of cookies and data.
  • En España
  • Lista de países
  • Para 7 días
  • Temperatura del agua
  • Mapa Satelital
  • El tiempo en el mapa
  • Informadores
  • user-avatar
    Iniciar sesión

    Tiempo cada hora Adelaide

    Hoy, 19 Abril, Viernes

    Tiempo Temperatura Precipitaciones Viento Presión Humedad
    00:00 +19°C° 0 mm 4 mps 763 mmHg 32%
    01:00 +19°C° 0 mm 4 mps 763 mmHg 33%
    02:00 +19°C° 0 mm 4 mps 763 mmHg 34%
    03:00 +19°C° 0 mm 5 mps 762 mmHg 35%
    04:00 +19°C° 0 mm 5 mps 762 mmHg 36%
    05:00 +19°C° 0 mm 5 mps 762 mmHg 38%
    06:00 +19°C° 0 mm 5 mps 762 mmHg 39%
    07:00 +21°C° 0 mm 5 mps 763 mmHg 37%
    08:00 +22°C° 0 mm 5 mps 763 mmHg 35%
    09:00 +26°C° 0 mm 5 mps 763 mmHg 32%
    10:00 +28°C° 0 mm 5 mps 762 mmHg 29%
    11:00 +30°C° 0 mm 4 mps 761 mmHg 27%
    12:00 +33°C° 0 mm 4 mps 761 mmHg 25%
    13:00 +33°C° 0 mm 4 mps 760 mmHg 24%
    14:00 +33°C° 0 mm 3 mps 760 mmHg 23%
    15:00 +34°C° 0 mm 3 mps 759 mmHg 22%
    16:00 +31°C° 0 mm 2 mps 759 mmHg 25%
    17:00 +29°C° 0 mm 2 mps 759 mmHg 28%
    18:00 +28°C° 0 mm 1 mps 760 mmHg 31%
    19:00 +28°C° 0 mm 2 mps 760 mmHg 31%
    20:00 +28°C° 0 mm 3 mps 760 mmHg 30%
    21:00 +28°C° 0 mm 4 mps 760 mmHg 30%
    22:00 +28°C° 0 mm 4 mps 760 mmHg 30%
    23:00 +27°C° 0 mm 4 mps 760 mmHg 29%

    Mañana, 20 Abril, Sábado

    Tiempo Temperatura Precipitaciones Viento Presión Humedad
    00:00 +27°C° 0 mm 4 mps 760 mmHg 29%
    01:00 +27°C° 0 mm 4 mps 760 mmHg 30%
    02:00 +26°C° 0 mm 4 mps 760 mmHg 30%
    03:00 +26°C° 0 mm 4 mps 759 mmHg 31%
    04:00 +26°C° 0 mm 4 mps 759 mmHg 31%
    05:00 +26°C° 0 mm 4 mps 759 mmHg 31%
    06:00 +26°C° 0 mm 4 mps 759 mmHg 32%
    07:00 +27°C° 0 mm 5 mps 759 mmHg 29%
    08:00 +29°C° 0 mm 6 mps 760 mmHg 27%
    09:00 +30°C° 0 mm 7 mps 760 mmHg 25%
    10:00 +32°C° 0 mm 7 mps 759 mmHg 23%
    11:00 +33°C° 0 mm 7 mps 758 mmHg 21%
    12:00 +34°C° 0 mm 7 mps 758 mmHg 19%
    13:00 +34°C° 0 mm 7 mps 757 mmHg 19%
    14:00 +33°C° 0 mm 6 mps 756 mmHg 20%
    15:00 +33°C° 0 mm 6 mps 755 mmHg 20%
    16:00 +32°C° 0 mm 5 mps 756 mmHg 21%
    17:00 +30°C° 0 mm 5 mps 756 mmHg 23%
    18:00 +29°C° 0 mm 4 mps 756 mmHg 25%
    19:00 +28°C° 0 mm 4 mps 756 mmHg 28%
    20:00 +27°C° 0 mm 4 mps 757 mmHg 31%
    21:00 +26°C° 0 mm 5 mps 757 mmHg 34%
    22:00 +23°C° 0 mm 5 mps 758 mmHg 48%
    23:00 +21°C° 0 mm 5 mps 758 mmHg 62%

    Pasado mañana, 21 Abril, Domingo

    Tiempo Temperatura Precipitaciones Viento Presión Humedad
    00:00 +19°C° 0 mm 6 mps 759 mmHg 77%
    01:00 +19°C° 0 mm 5 mps 759 mmHg 76%
    02:00 +17°C° 0 mm 5 mps 759 mmHg 76%
    03:00 +17°C° 0 mm 4 mps 760 mmHg 76%
    04:00 +17°C° 0.1 mm 4 mps 760 mmHg 75%
    05:00 +17°C° 0.1 mm 4 mps 761 mmHg 75%
    06:00 +15°C° 0.1 mm 4 mps 761 mmHg 74%
    07:00 +17°C° 0.4 mm 3 mps 762 mmHg 72%
    08:00 +17°C° 0.4 mm 3 mps 762 mmHg 71%
    09:00 +17°C° 0.4 mm 3 mps 763 mmHg 69%
    10:00 +18°C° 0.5 mm 3 mps 763 mmHg 67%
    11:00 +18°C° 0.5 mm 3 mps 763 mmHg 64%
    12:00 +18°C° 0.5 mm 3 mps 763 mmHg 62%
    13:00 +18°C° 0 mm 3 mps 763 mmHg 60%
    14:00 +18°C° 0 mm 3 mps 763 mmHg 59%
    15:00 +18°C° 0 mm 3 mps 763 mmHg 58%
    16:00 +17°C° 0 mm 3 mps 763 mmHg 61%
    17:00 +17°C° 0 mm 3 mps 764 mmHg 64%
    18:00 +16°C° 0 mm 3 mps 764 mmHg 67%
    19:00 +16°C° 0 mm 3 mps 764 mmHg 70%
    20:00 +14°C° 0 mm 3 mps 765 mmHg 72%
    21:00 +14°C° 0 mm 3 mps 765 mmHg 75%
    22:00 +14°C° 0 mm 3 mps 765 mmHg 74%
    23:00 +14°C° 0 mm 4 mps 765 mmHg 73%

    22 Abril, Lunes

    Tiempo Temperatura Precipitaciones Viento Presión Humedad
    00:00 +13°C° 0 mm 4 mps 765 mmHg 73%
    01:00 +13°C° 0 mm 4 mps 765 mmHg 72%
    02:00 +13°C° 0 mm 4 mps 765 mmHg 71%
    03:00 +13°C° 0 mm 4 mps 765 mmHg 71%
    04:00 +13°C° 0 mm 4 mps 766 mmHg 72%
    05:00 +13°C° 0 mm 4 mps 766 mmHg 73%
    06:00 +12°C° 0 mm 3 mps 766 mmHg 74%
    07:00 +13°C° 0 mm 4 mps 766 mmHg 69%
    08:00 +15°C° 0 mm 4 mps 767 mmHg 64%
    09:00 +17°C° 0 mm 4 mps 767 mmHg 60%
    10:00 +18°C° 0 mm 4 mps 766 mmHg 56%
    11:00 +19°C° 0 mm 4 mps 766 mmHg 52%
    12:00 +20°C° 0 mm 4 mps 766 mmHg 48%
    13:00 +20°C° 0 mm 4 mps 765 mmHg 49%
    14:00 +20°C° 0 mm 4 mps 765 mmHg 50%
    15:00 +20°C° 0 mm 5 mps 765 mmHg 51%
    16:00 +17°C° 0 mm 5 mps 765 mmHg 57%
    17:00 +16°C° 0 mm 5 mps 765 mmHg 63%
    18:00 +15°C° 0 mm 5 mps 766 mmHg 68%
    19:00 +14°C° 0 mm 4 mps 766 mmHg 71%
    20:00 +14°C° 0 mm 4 mps 766 mmHg 73%
    21:00 +14°C° 0 mm 4 mps 766 mmHg 75%
    22:00 +14°C° 0 mm 4 mps 766 mmHg 76%
    23:00 +14°C° 0 mm 4 mps 765 mmHg 77%

    23 Abril, Martes

    Tiempo Temperatura Precipitaciones Viento Presión Humedad
    00:00 +14°C° 0 mm 4 mps 765 mmHg 78%
    01:00 +14°C° 0 mm 4 mps 765 mmHg 78%
    02:00 +13°C° 0 mm 3 mps 765 mmHg 77%
    03:00 +13°C° 0 mm 3 mps 765 mmHg 77%
    04:00 +13°C° 0 mm 3 mps 765 mmHg 76%
    05:00 +13°C° 0 mm 3 mps 765 mmHg 75%
    06:00 +14°C° 0 mm 2 mps 765 mmHg 75%
    07:00 +16°C° 0 mm 2 mps 765 mmHg 67%
    08:00 +18°C° 0 mm 2 mps 765 mmHg 58%
    09:00 +21°C° 0 mm 1 mps 766 mmHg 50%
    10:00 +22°C° 0 mm 1 mps 765 mmHg 47%
    11:00 +24°C° 0 mm 2 mps 765 mmHg 44%
    12:00 +25°C° 0 mm 2 mps 764 mmHg 41%
    13:00 +25°C° 0 mm 3 mps 764 mmHg 43%
    14:00 +24°C° 0 mm 3 mps 764 mmHg 46%
    15:00 +23°C° 0 mm 4 mps 763 mmHg 48%
    16:00 +21°C° 0 mm 4 mps 764 mmHg 55%
    17:00 +20°C° 0 mm 4 mps 764 mmHg 63%
    18:00 +18°C° 0 mm 4 mps 764 mmHg 71%
    19:00 +17°C° 0 mm 3 mps 764 mmHg 73%
    20:00 +17°C° 0 mm 3 mps 764 mmHg 75%
    21:00 +16°C° 0 mm 3 mps 765 mmHg 77%
    22:00 +16°C° 0 mm 3 mps 764 mmHg 79%
    23:00 +16°C° 0 mm 3 mps 764 mmHg 81%

    24 Abril, Miércoles

    Tiempo Temperatura Precipitaciones Viento Presión Humedad
    00:00 +14°C° 0 mm 3 mps 764 mmHg 83%
    01:00 +14°C° 0 mm 3 mps 764 mmHg 84%
    02:00 +15°C° 0 mm 2 mps 764 mmHg 85%
    03:00 +15°C° 0 mm 2 mps 764 mmHg 85%
    04:00 +15°C° 0 mm 2 mps 764 mmHg 85%
    05:00 +15°C° 0 mm 2 mps 764 mmHg 85%
    06:00 +15°C° 0 mm 2 mps 765 mmHg 84%
    07:00 +16°C° 0 mm 3 mps 765 mmHg 77%
    08:00 +17°C° 0 mm 3 mps 765 mmHg 70%
    09:00 +19°C° 0 mm 3 mps 765 mmHg 62%
    10:00 +19°C° 0 mm 4 mps 765 mmHg 58%
    11:00 +20°C° 0 mm 4 mps 765 mmHg 54%
    12:00 +21°C° 0 mm 4 mps 765 mmHg 50%
    13:00 +20°C° 0 mm 4 mps 765 mmHg 52%
    14:00 +20°C° 0 mm 4 mps 764 mmHg 54%
    15:00 +20°C° 0 mm 4 mps 764 mmHg 56%
    16:00 +19°C° 0 mm 4 mps 764 mmHg 61%
    17:00 +18°C° 0 mm 3 mps 765 mmHg 65%
    18:00 +17°C° 0 mm 3 mps 765 mmHg 70%
    19:00 +16°C° 0 mm 2 mps 765 mmHg 73%
    20:00 +16°C° 0 mm 2 mps 766 mmHg 77%
    21:00 +15°C° 0 mm 1 mps 766 mmHg 80%
    22:00 +15°C° 0 mm 1 mps 766 mmHg 82%
    23:00 +15°C° 0 mm 2 mps 766 mmHg 85%
    Mostrar más